• In Österreich
  • Länderverzeichnis
  • Für 7 Tage
  • Wassertemperatur
  • Satellitenkarten
  • Wetterkarte
  • News
  • Widgets
  • user-avatar
    Anmelden

    Stündliche Wetter Plowdiw

    Heute, 24 Juni, Sonntag

    Zeit Temperatur Niederschläge Wind Luftdruck Luftfeuchtigkeit
    00:00 +14°C° 0 mm 2 m/S 739 mmHg 73%
    01:00 +13°C° 0 mm 2 m/S 740 mmHg 73%
    02:00 +14°C° 0 mm 2 m/S 739 mmHg 73%
    03:00 +13°C° 0 mm 1 m/S 739 mmHg 74%
    04:00 +13°C° 0 mm 1 m/S 739 mmHg 75%
    05:00 +13°C° 0 mm 1 m/S 739 mmHg 76%
    06:00 +15°C° 0 mm 1 m/S 739 mmHg 69%
    07:00 +18°C° 0 mm 1 m/S 739 mmHg 62%
    08:00 +20°C° 0 mm 1 m/S 739 mmHg 55%
    09:00 +21°C° 0 mm 1 m/S 739 mmHg 52%
    10:00 +23°C° 0 mm 1 m/S 739 mmHg 49%
    11:00 +24°C° 0 mm 1 m/S 739 mmHg 45%
    12:00 +24°C° 0 mm 1 m/S 739 mmHg 46%
    13:00 +25°C° 0 mm 1 m/S 739 mmHg 46%
    14:00 +24°C° 0 mm 1 m/S 739 mmHg 51%
    15:00 +24°C° 0,1 mm 1 m/S 739 mmHg 52%
    16:00 +24°C° 0,1 mm 1 m/S 739 mmHg 52%
    17:00 +24°C° 0,1 mm 1 m/S 739 mmHg 53%
    18:00 +22°C° 0 mm 1 m/S 739 mmHg 59%
    19:00 +20°C° 0 mm 1 m/S 739 mmHg 65%
    20:00 +19°C° 0 mm 1 m/S 738 mmHg 70%
    21:00 +18°C° 0 mm 1 m/S 739 mmHg 72%
    22:00 +18°C° 0 mm 1 m/S 739 mmHg 74%
    23:00 +16°C° 0 mm 1 m/S 739 mmHg 75%

    Morgen, 25 Juni, Montag

    Zeit Temperatur Niederschläge Wind Luftdruck Luftfeuchtigkeit
    00:00 +16°C° 0 mm 1 m/S 739 mmHg 77%
    01:00 +15°C° 0 mm 1 m/S 739 mmHg 79%
    02:00 +15°C° 0 mm 1 m/S 739 mmHg 80%
    03:00 +15°C° 0 mm 1 m/S 739 mmHg 82%
    04:00 +14°C° 0 mm 1 m/S 739 mmHg 84%
    05:00 +14°C° 0 mm 1 m/S 739 mmHg 86%
    06:00 +16°C° 0 mm 1 m/S 739 mmHg 79%
    07:00 +19°C° 0 mm 1 m/S 739 mmHg 72%
    08:00 +21°C° 0 mm 1 m/S 739 mmHg 66%
    09:00 +22°C° 0 mm 1 m/S 739 mmHg 62%
    10:00 +23°C° 0 mm 2 m/S 739 mmHg 58%
    11:00 +24°C° 0 mm 2 m/S 739 mmHg 54%
    12:00 +25°C° 0,1 mm 2 m/S 739 mmHg 53%
    13:00 +26°C° 0,1 mm 2 m/S 739 mmHg 51%
    14:00 +26°C° 0,1 mm 2 m/S 738 mmHg 49%
    15:00 +26°C° 0,3 mm 2 m/S 738 mmHg 53%
    16:00 +26°C° 0,3 mm 2 m/S 738 mmHg 57%
    17:00 +25°C° 0,3 mm 2 m/S 738 mmHg 60%
    18:00 +24°C° 0,2 mm 2 m/S 738 mmHg 65%
    19:00 +21°C° 0,2 mm 2 m/S 738 mmHg 70%
    20:00 +20°C° 0,2 mm 2 m/S 738 mmHg 74%
    21:00 +19°C° 0,1 mm 2 m/S 738 mmHg 78%
    22:00 +18°C° 0,1 mm 2 m/S 738 mmHg 81%
    23:00 +18°C° 0,1 mm 1 m/S 738 mmHg 84%

    übermorgen, 26 Juni, Dienstag

    Zeit Temperatur Niederschläge Wind Luftdruck Luftfeuchtigkeit
    00:00 +18°C° 0,1 mm 1 m/S 738 mmHg 86%
    01:00 +18°C° 0,1 mm 1 m/S 738 mmHg 88%
    02:00 +16°C° 0,1 mm 1 m/S 738 mmHg 90%
    03:00 +16°C° 0 mm 1 m/S 737 mmHg 91%
    04:00 +16°C° 0 mm 1 m/S 737 mmHg 92%
    05:00 +16°C° 0 mm 1 m/S 737 mmHg 93%
    06:00 +18°C° 0 mm 1 m/S 737 mmHg 87%
    07:00 +19°C° 0 mm 1 m/S 737 mmHg 82%
    08:00 +20°C° 0 mm 2 m/S 737 mmHg 77%
    09:00 +21°C° 0 mm 2 m/S 737 mmHg 68%
    10:00 +23°C° 0 mm 2 m/S 736 mmHg 60%
    11:00 +25°C° 0 mm 3 m/S 736 mmHg 52%
    12:00 +26°C° 0 mm 3 m/S 736 mmHg 50%
    13:00 +26°C° 0 mm 4 m/S 735 mmHg 48%
    14:00 +27°C° 0 mm 4 m/S 735 mmHg 46%
    15:00 +26°C° 0,4 mm 4 m/S 734 mmHg 53%
    16:00 +25°C° 0,4 mm 3 m/S 734 mmHg 61%
    17:00 +24°C° 0,4 mm 3 m/S 734 mmHg 68%
    18:00 +23°C° 2,9 mm 2 m/S 734 mmHg 75%
    19:00 +20°C° 2,9 mm 2 m/S 734 mmHg 83%
    20:00 +20°C° 2,9 mm 1 m/S 734 mmHg 90%
    21:00 +20°C° 2,1 mm 1 m/S 734 mmHg 92%
    22:00 +20°C° 2,1 mm 1 m/S 734 mmHg 93%
    23:00 +20°C° 2,1 mm 1 m/S 734 mmHg 94%

    27 Juni, Mittwoch

    Zeit Temperatur Niederschläge Wind Luftdruck Luftfeuchtigkeit
    00:00 +19°C° 1,3 mm 1 m/S 734 mmHg 95%
    01:00 +19°C° 1,3 mm 1 m/S 734 mmHg 95%
    02:00 +19°C° 1,3 mm 1 m/S 733 mmHg 96%
    03:00 +19°C° 0,5 mm 1 m/S 733 mmHg 96%
    04:00 +19°C° 0,5 mm 1 m/S 733 mmHg 96%
    05:00 +19°C° 0,5 mm 1 m/S 733 mmHg 96%
    06:00 +19°C° 0,3 mm 1 m/S 733 mmHg 94%
    07:00 +20°C° 0,3 mm 1 m/S 733 mmHg 91%
    08:00 +20°C° 0,3 mm 1 m/S 733 mmHg 89%
    09:00 +22°C° 0,5 mm 1 m/S 733 mmHg 85%
    10:00 +23°C° 0,5 mm 1 m/S 733 mmHg 80%
    11:00 +24°C° 0,5 mm 1 m/S 733 mmHg 76%
    12:00 +24°C° 1,2 mm 1 m/S 733 mmHg 76%
    13:00 +24°C° 1,2 mm 1 m/S 733 mmHg 77%
    14:00 +24°C° 1,2 mm 1 m/S 732 mmHg 77%
    15:00 +24°C° 1,5 mm 1 m/S 732 mmHg 80%
    16:00 +23°C° 1,5 mm 1 m/S 732 mmHg 82%
    17:00 +23°C° 1,5 mm 2 m/S 732 mmHg 85%
    18:00 +22°C° 1,1 mm 1 m/S 732 mmHg 88%
    19:00 +21°C° 1,1 mm 1 m/S 732 mmHg 91%
    20:00 +20°C° 1,1 mm 1 m/S 732 mmHg 93%
    21:00 +19°C° 0,6 mm 1 m/S 732 mmHg 94%
    22:00 +19°C° 0,6 mm 1 m/S 732 mmHg 94%
    23:00 +19°C° 0,6 mm 1 m/S 732 mmHg 95%

    28 Juni, Donnerstag

    Zeit Temperatur Niederschläge Wind Luftdruck Luftfeuchtigkeit
    00:00 +19°C° 0,3 mm 1 m/S 732 mmHg 95%
    01:00 +18°C° 0,3 mm 1 m/S 732 mmHg 95%
    02:00 +18°C° 0,3 mm 1 m/S 732 mmHg 95%
    03:00 +18°C° 0,2 mm 1 m/S 732 mmHg 95%
    04:00 +18°C° 0,2 mm 1 m/S 732 mmHg 95%
    05:00 +18°C° 0,2 mm 1 m/S 732 mmHg 95%
    06:00 +19°C° 0,1 mm 1 m/S 732 mmHg 92%
    07:00 +20°C° 0,1 mm 1 m/S 732 mmHg 89%
    08:00 +21°C° 0,1 mm 1 m/S 732 mmHg 86%
    09:00 +22°C° 0,1 mm 1 m/S 733 mmHg 79%
    10:00 +24°C° 0,1 mm 1 m/S 733 mmHg 73%
    11:00 +25°C° 0,1 mm 1 m/S 733 mmHg 66%
    12:00 +25°C° 0,5 mm 1 m/S 733 mmHg 65%
    13:00 +26°C° 0,5 mm 1 m/S 733 mmHg 65%
    14:00 +27°C° 0,5 mm 1 m/S 733 mmHg 64%
    15:00 +26°C° 0,8 mm 1 m/S 732 mmHg 65%
    16:00 +26°C° 0,8 mm 1 m/S 732 mmHg 66%
    17:00 +26°C° 0,8 mm 1 m/S 732 mmHg 67%
    18:00 +24°C° 0,4 mm 1 m/S 732 mmHg 72%
    19:00 +23°C° 0,4 mm 1 m/S 732 mmHg 78%
    20:00 +19°C° 0,4 mm 0 m/S 732 mmHg 84%
    21:00 +20°C° 0 mm 1 m/S 733 mmHg 85%
    22:00 +20°C° 0 mm 1 m/S 733 mmHg 87%
    23:00 +19°C° 0 mm 1 m/S 733 mmHg 88%

    29 Juni, Freitag

    Zeit Temperatur Niederschläge Wind Luftdruck Luftfeuchtigkeit
    00:00 +19°C° 0 mm 1 m/S 733 mmHg 88%
    01:00 +19°C° 0 mm 1 m/S 733 mmHg 88%
    02:00 +18°C° 0 mm 1 m/S 733 mmHg 88%
    03:00 +18°C° 0 mm 1 m/S 733 mmHg 87%
    04:00 +18°C° 0 mm 1 m/S 733 mmHg 87%
    05:00 +18°C° 0 mm 1 m/S 733 mmHg 87%
    06:00 +20°C° 0 mm 1 m/S 733 mmHg 79%
    07:00 +22°C° 0 mm 1 m/S 733 mmHg 72%
    08:00 +24°C° 0 mm 1 m/S 733 mmHg 64%
    09:00 +26°C° 0 mm 1 m/S 733 mmHg 57%
    10:00 +28°C° 0 mm 2 m/S 733 mmHg 51%
    11:00 +29°C° 0 mm 2 m/S 733 mmHg 44%
    12:00 +29°C° 0 mm 2 m/S 733 mmHg 44%
    13:00 +30°C° 0 mm 2 m/S 733 mmHg 44%
    14:00 +30°C° 0 mm 2 m/S 732 mmHg 43%
    15:00 +29°C° 0 mm 2 m/S 732 mmHg 46%
    16:00 +29°C° 0 mm 2 m/S 732 mmHg 49%
    17:00 +28°C° 0 mm 2 m/S 732 mmHg 52%
    18:00 +26°C° 0 mm 2 m/S 732 mmHg 59%
    19:00 +25°C° 0 mm 2 m/S 732 mmHg 65%
    20:00 +23°C° 0 mm 1 m/S 732 mmHg 72%
    21:00 +21°C° 0 mm 2 m/S 733 mmHg 73%
    22:00 +21°C° 0 mm 2 m/S 733 mmHg 75%
    23:00 +20°C° 0 mm 2 m/S 733 mmHg 77%
    Mehr zeigen